�������l�o���
Date,Time,MP-1(��Sv/h),MP-2(��Sv/h),MP-3(��Sv/h),MP-4(��Sv/h),MP-5(��Sv/h),MP-6(��Sv/h),MP-7(��Sv/h),MP-8(��Sv/h),����,����(m/s),���J
2021/04/10,00:00,0.627,0.936,0.586,1.152,0.822,0.369,0.655,0.614,�쓌,2.6,��
2021/04/10,00:10,0.629,0.935,0.586,1.153,0.822,0.371,0.653,0.615,�k�k��,0.6,��
2021/04/10,00:20,0.629,0.935,0.588,1.154,0.823,0.372,0.653,0.615,�k�k��,4.2,��
2021/04/10,00:30,0.629,0.935,0.587,1.151,0.821,0.372,0.653,0.614,�k�k��,5.5,��
2021/04/10,00:40,0.630,0.935,0.587,1.151,0.822,0.370,0.654,0.615,�k�k��,5.1,��
2021/04/10,00:50,0.630,0.935,0.588,1.151,0.822,0.371,0.651,0.615,�k�k��,5.5,��
2021/04/10,01:00,0.630,0.936,0.586,1.152,0.821,0.370,0.652,0.614,�k�k��,6.5,��
2021/04/10,01:10,0.628,0.938,0.589,1.154,0.821,0.371,0.653,0.614,�k�k��,5.8,��
2021/04/10,01:20,0.628,0.935,0.588,1.153,0.821,0.372,0.653,0.613,�k�k��,5.8,��
2021/04/10,01:30,0.629,0.934,0.587,1.153,0.822,0.371,0.653,0.614,�k��,3.8,��
2021/04/10,01:40,0.631,0.937,0.585,1.151,0.822,0.369,0.652,0.614,�k��,3.4,��
2021/04/10,01:50,0.628,0.936,0.587,1.154,0.822,0.371,0.651,0.613,�k��,4.2,��
2021/04/10,02:00,0.629,0.936,0.587,1.153,0.819,0.371,0.652,0.612,�k��,4.1,��
2021/04/10,02:10,0.627,0.935,0.587,1.151,0.821,0.370,0.653,0.614,�k��,4.6,��
2021/04/10,02:20,0.626,0.936,0.585,1.151,0.822,0.370,0.653,0.614,�k�k��,5.0,��
2021/04/10,02:30,0.628,0.933,0.587,1.150,0.821,0.371,0.652,0.614,�k�k��,4.4,��
2021/04/10,02:40,0.627,0.936,0.585,1.150,0.821,0.371,0.651,0.613,�k�k��,4.3,��
2021/04/10,02:50,0.629,0.936,0.586,1.150,0.821,0.371,0.652,0.613,�k�k��,4.3,��
2021/04/10,03:00,0.628,0.935,0.586,1.153,0.821,0.371,0.652,0.613,�k�k��,3.8,��
2021/04/10,03:10,0.627,0.933,0.589,1.152,0.821,0.370,0.652,0.613,�k�k��,3.2,��
2021/04/10,03:20,0.628,0.934,0.586,1.151,0.819,0.370,0.653,0.614,�k�k��,3.2,��
2021/04/10,03:30,0.628,0.934,0.586,1.149,0.820,0.370,0.651,0.613,�k�k��,3.4,��
2021/04/10,03:40,0.628,0.933,0.586,1.150,0.821,0.370,0.652,0.613,�k�k��,3.0,��
2021/04/10,03:50,0.628,0.933,0.587,1.150,0.821,0.370,0.652,0.613,�k�k��,2.9,��
2021/04/10,04:00,0.629,0.934,0.587,1.152,0.822,0.369,0.653,0.615,�k�k��,3.1,��
2021/04/10,04:10,0.627,0.934,0.586,1.149,0.822,0.371,0.651,0.612,�k�k��,2.9,��
2021/04/10,04:20,0.629,0.933,0.587,1.150,0.819,0.371,0.651,0.613,�k�k��,2.3,��
2021/04/10,04:30,0.628,0.931,0.585,1.149,0.821,0.370,0.650,0.613,�k�k��,2.5,��
2021/04/10,04:40,0.627,0.932,0.586,1.152,0.820,0.370,0.652,0.613,�k�k��,2.9,��
2021/04/10,04:50,0.629,0.932,0.587,1.149,0.821,0.369,0.651,0.612,�k�k��,2.3,��
2021/04/10,05:00,0.627,0.933,0.586,1.148,0.819,0.369,0.650,0.614,�k,2.5,��
2021/04/10,05:10,0.630,0.932,0.587,1.152,0.821,0.370,0.651,0.614,�k,2.5,��
2021/04/10,05:20,0.628,0.933,0.587,1.152,0.820,0.369,0.652,0.613,�k,3.0,��
2021/04/10,05:30,0.629,0.933,0.587,1.150,0.821,0.369,0.651,0.613,�k�k��,3.3,��
2021/04/10,05:40,0.627,0.930,0.587,1.152,0.821,0.369,0.653,0.612,�k�k��,3.1,��
2021/04/10,05:50,0.628,0.932,0.586,1.149,0.819,0.369,0.652,0.613,�k�k��,2.3,��
2021/04/10,06:00,0.629,0.933,0.587,1.151,0.821,0.370,0.652,0.612,�k�k��,2.9,��
2021/04/10,06:10,0.626,0.933,0.587,1.152,0.820,0.371,0.651,0.613,�k�k��,3.3,��
2021/04/10,06:20,0.627,0.933,0.588,1.153,0.820,0.370,0.652,0.614,�k��,3.6,��
2021/04/10,06:30,0.628,0.935,0.588,1.149,0.821,0.370,0.652,0.612,�k��,3.4,��
2021/04/10,06:40,0.629,0.931,0.587,1.150,0.821,0.369,0.652,0.612,�k��,3.6,��
2021/04/10,06:50,0.629,0.933,0.586,1.152,0.822,0.371,0.652,0.613,�k�k��,5.7,��
2021/04/10,07:00,0.630,0.933,0.586,1.153,0.821,0.370,0.654,0.613,�k��,6.4,��
2021/04/10,07:10,0.629,0.934,0.587,1.152,0.819,0.370,0.651,0.611,�k�k��,5.7,��
2021/04/10,07:20,0.627,0.933,0.587,1.150,0.821,0.371,0.653,0.613,�k�k��,5.0,��
2021/04/10,07:30,0.631,0.935,0.584,1.152,0.820,0.371,0.654,0.615,�k�k��,5.1,��
2021/04/10,07:40,0.628,0.934,0.587,1.151,0.821,0.370,0.653,0.613,�k�k��,5.4,��
2021/04/10,07:50,0.630,0.935,0.587,1.152,0.822,0.370,0.653,0.614,�k�k��,5.4,��
2021/04/10,08:00,0.628,0.935,0.590,1.151,0.821,0.371,0.654,0.614,�k�k��,5.6,��
2021/04/10,08:10,0.629,0.931,0.589,1.152,0.821,0.371,0.653,0.614,�k�k��,4.9,��
2021/04/10,08:20,0.632,0.935,0.588,1.154,0.821,0.369,0.653,0.615,�k�k��,7.2,��
2021/04/10,08:30,0.629,0.934,0.586,1.153,0.821,0.369,0.654,0.614,�k�k��,7.6,��
2021/04/10,08:40,0.631,0.931,0.587,1.152,0.821,0.370,0.653,0.614,�k�k��,8.5,��
2021/04/10,08:50,0.631,0.932,0.587,1.152,0.822,0.368,0.652,0.615,�k��,9.3,��
2021/04/10,09:00,0.631,0.932,0.586,1.152,0.823,0.370,0.652,0.614,�k�k��,8.2,��
2021/04/10,09:10,0.630,0.933,0.588,1.155,0.821,0.371,0.653,0.615,�k�k��,7.3,��
2021/04/10,09:20,0.632,0.934,0.589,1.154,0.825,0.371,0.651,0.613,�k�k��,6.9,��
2021/04/10,09:30,0.632,0.937,0.591,1.152,0.821,0.369,0.652,0.611,�k,6.1,��
2021/04/10,09:40,0.630,0.932,0.587,1.154,0.824,0.370,0.650,0.613,�k�k��,6.5,��
2021/04/10,09:50,0.630,0.934,0.589,1.155,0.823,0.371,0.653,0.612,�k��,6.8,��
2021/04/10,10:00,0.631,0.934,0.587,1.156,0.823,0.370,0.651,0.612,�k��,6.0,��
2021/04/10,10:10,0.629,0.936,0.588,1.154,0.825,0.370,0.651,0.612,�k��,6.1,��
2021/04/10,10:20,0.628,0.938,0.589,1.155,0.825,0.369,0.653,0.612,�k��,7.5,��
2021/04/10,10:30,0.631,0.936,0.589,1.154,0.822,0.370,0.651,0.613,�k��,7.3,��
2021/04/10,10:40,0.632,0.935,0.589,1.156,0.825,0.369,0.652,0.612,�k�k��,6.7,��
2021/04/10,10:50,0.631,0.936,0.589,1.154,0.825,0.370,0.652,0.612,�k��,6.6,��
2021/04/10,11:00,0.630,0.936,0.589,1.154,0.822,0.370,0.652,0.612,�k��,6.3,��
2021/04/10,11:10,0.632,0.936,0.589,1.155,0.825,0.371,0.651,0.611,�k��,5.7,��
2021/04/10,11:20,0.632,0.934,0.590,1.153,0.824,0.369,0.652,0.612,�k��,6.9,��
2021/04/10,11:30,0.635,0.937,0.587,1.155,0.822,0.370,0.653,0.612,�k��,5.5,��
2021/04/10,11:40,0.631,0.936,0.588,1.155,0.825,0.371,0.653,0.612,�k��,6.3,��
2021/04/10,11:50,0.632,0.937,0.588,1.156,0.824,0.371,0.654,0.613,�k��,6.3,��
2021/04/10,12:00,0.633,0.936,0.590,1.157,0.824,0.371,0.650,0.612,�k��,6.4,��
2021/04/10,12:10,0.631,0.939,0.588,1.156,0.825,0.371,0.653,0.613,�k�k��,6.7,��
2021/04/10,12:20,0.632,0.936,0.590,1.156,0.823,0.371,0.654,0.611,�k��,6.6,��
2021/04/10,12:30,0.631,0.938,0.587,1.156,0.823,0.372,0.653,0.612,�k��,6.6,��
2021/04/10,12:40,0.632,0.937,0.589,1.156,0.825,0.372,0.652,0.612,�k�k��,7.3,��
2021/04/10,12:50,0.631,0.936,0.587,1.154,0.824,0.373,0.653,0.612,�k�k��,7.0,��
2021/04/10,13:00,0.630,0.934,0.589,1.156,0.827,0.373,0.652,0.611,�k�k��,7.4,��
2021/04/10,13:10,0.631,0.937,0.589,1.157,0.825,0.372,0.652,0.612,�k��,6.0,��
2021/04/10,13:20,0.630,0.939,0.588,1.156,0.824,0.373,0.654,0.613,�k�k��,5.8,��
2021/04/10,13:30,0.631,0.936,0.589,1.157,0.826,0.373,0.654,0.612,�k��,5.8,��
2021/04/10,13:40,0.630,0.934,0.587,1.155,0.824,0.373,0.654,0.613,�k��,5.6,��
2021/04/10,13:50,0.631,0.937,0.589,1.156,0.825,0.370,0.653,0.611,�k�k��,5.9,��
2021/04/10,14:00,0.631,0.937,0.588,1.158,0.828,0.372,0.652,0.612,�k�k��,5.3,��
2021/04/10,14:10,0.633,0.938,0.588,1.156,0.826,0.372,0.654,0.612,�k��,5.2,��
2021/04/10,14:20,0.632,0.937,0.589,1.157,0.826,0.371,0.653,0.612,�k��,5.1,��
2021/04/10,14:30,0.631,0.938,0.588,1.158,0.826,0.372,0.652,0.612,�k��,4.5,��
2021/04/10,14:40,0.632,0.936,0.589,1.158,0.824,0.371,0.653,0.612,�k��,4.2,��
2021/04/10,14:50,0.631,0.938,0.590,1.155,0.825,0.372,0.654,0.612,�k�k��,4.3,��
2021/04/10,15:00,0.632,0.938,0.589,1.157,0.826,0.373,0.652,0.613,�k��,3.9,��
2021/04/10,15:10,0.631,0.938,0.590,1.156,0.825,0.373,0.653,0.612,�k��,3.4,��
2021/04/10,15:20,0.632,0.940,0.590,1.155,0.826,0.373,0.652,0.612,�k��,3.2,��
2021/04/10,15:30,0.631,0.940,0.589,1.157,0.826,0.374,0.652,0.611,�k��,3.0,��
2021/04/10,15:40,0.633,0.942,0.590,1.157,0.825,0.373,0.653,0.613,�k��,3.1,��
2021/04/10,15:50,0.633,0.941,0.592,1.156,0.827,0.373,0.652,0.612,�k�k��,4.4,��
2021/04/10,16:00,0.634,0.941,0.590,1.157,0.827,0.373,0.652,0.613,�k�k��,3.6,��
2021/04/10,16:10,0.633,0.940,0.590,1.155,0.826,0.373,0.653,0.613,�k�k��,2.6,��
2021/04/10,16:20,0.633,0.941,0.592,1.159,0.825,0.374,0.653,0.612,�k�k��,2.6,��
2021/04/10,16:30,0.634,0.941,0.593,1.157,0.827,0.374,0.653,0.615,�k��,2.6,��
2021/04/10,16:40,0.635,0.941,0.591,1.159,0.826,0.372,0.652,0.614,�k,1.9,��
2021/04/10,16:50,0.632,0.944,0.592,1.157,0.827,0.373,0.653,0.616,���k��,2.0,��
2021/04/10,17:00,0.634,0.940,0.590,1.158,0.824,0.372,0.653,0.616,�k,2.3,��
2021/04/10,17:10,0.633,0.942,0.591,1.160,0.827,0.373,0.654,0.617,�k�k��,2.6,��
2021/04/10,17:20,0.635,0.941,0.591,1.157,0.825,0.372,0.653,0.615,�k�k��,1.9,��
2021/04/10,17:30,0.634,0.941,0.589,1.159,0.826,0.371,0.652,0.615,�k,1.9,��
2021/04/10,17:40,0.632,0.941,0.590,1.159,0.826,0.372,0.653,0.616,�k�k��,2.3,��
2021/04/10,17:50,0.635,0.942,0.589,1.156,0.826,0.372,0.654,0.615,�k,1.7,��
2021/04/10,18:00,0.634,0.938,0.591,1.158,0.828,0.373,0.653,0.617,�k,1.2,��
2021/04/10,18:10,0.632,0.940,0.589,1.156,0.829,0.372,0.653,0.616,�k,1.2,��
2021/04/10,18:20,0.634,0.939,0.590,1.157,0.829,0.371,0.653,0.616,�k�k��,1.7,��
2021/04/10,18:30,0.632,0.938,0.590,1.156,0.829,0.372,0.654,0.616,�k�k��,1.5,��
2021/04/10,18:40,0.633,0.941,0.589,1.155,0.826,0.372,0.653,0.615,�k��,1.2,��
2021/04/10,18:50,0.631,0.940,0.590,1.157,0.828,0.371,0.654,0.614,�k��,1.7,��
2021/04/10,19:00,0.633,0.940,0.590,1.157,0.828,0.372,0.653,0.614,�k��,2.0,��
2021/04/10,19:10,0.631,0.939,0.588,1.155,0.829,0.372,0.653,0.613,���k��,2.0,��
2021/04/10,19:20,0.631,0.940,0.589,1.159,0.826,0.371,0.655,0.614,���k��,2.6,��
2021/04/10,19:30,0.631,0.941,0.590,1.155,0.828,0.371,0.653,0.615,�k��,2.6,��
2021/04/10,19:40,0.631,0.939,0.589,1.158,0.828,0.371,0.652,0.614,�k��,3.2,��
2021/04/10,19:50,0.631,0.938,0.588,1.158,0.828,0.372,0.654,0.615,�k�k��,3.2,��
2021/04/10,20:00,0.632,0.938,0.589,1.156,0.827,0.371,0.653,0.613,�k�k��,2.9,��
2021/04/10,20:10,0.632,0.939,0.590,1.157,0.825,0.372,0.653,0.614,�k�k��,3.3,��
2021/04/10,20:20,0.632,0.941,0.591,1.158,0.825,0.371,0.652,0.612,�k�k��,4.1,��
2021/04/10,20:30,0.630,0.941,0.590,1.156,0.827,0.371,0.653,0.614,�k�k��,4.7,��
2021/04/10,20:40,0.632,0.937,0.588,1.158,0.827,0.371,0.652,0.615,�k�k��,5.4,��
2021/04/10,20:50,0.631,0.940,0.589,1.156,0.828,0.371,0.653,0.613,�k�k��,6.1,��
2021/04/10,21:00,0.631,0.940,0.589,1.157,0.827,0.372,0.654,0.613,�k�k��,6.4,��
2021/04/10,21:10,0.631,0.939,0.589,1.157,0.828,0.371,0.653,0.615,�k�k��,6.7,��
2021/04/10,21:20,0.630,0.940,0.589,1.159,0.825,0.371,0.653,0.614,�k�k��,6.4,��
2021/04/10,21:30,0.632,0.940,0.589,1.159,0.827,0.372,0.653,0.615,�k�k��,6.8,��
2021/04/10,21:40,0.632,0.938,0.589,1.161,0.828,0.371,0.654,0.615,�k�k��,6.4,��
2021/04/10,21:50,0.631,0.940,0.589,1.159,0.829,0.372,0.654,0.613,�k�k��,6.6,��
2021/04/10,22:00,0.632,0.940,0.590,1.159,0.828,0.370,0.654,0.614,�k��,6.6,��
2021/04/10,22:10,0.632,0.941,0.590,1.158,0.829,0.371,0.652,0.614,�k��,6.4,��
2021/04/10,22:20,0.633,0.940,0.589,1.159,0.827,0.371,0.655,0.614,�k��,6.1,��
2021/04/10,22:30,0.631,0.942,0.590,1.158,0.828,0.371,0.653,0.613,�k��,6.4,��
2021/04/10,22:40,0.630,0.940,0.589,1.157,0.827,0.370,0.653,0.615,�k��,6.7,��
2021/04/10,22:50,0.631,0.940,0.589,1.158,0.826,0.371,0.653,0.614,�k��,6.1,��
2021/04/10,23:00,0.631,0.940,0.589,1.156,0.827,0.371,0.653,0.613,�k��,6.6,��
2021/04/10,23:10,0.632,0.939,0.590,1.157,0.828,0.372,0.654,0.614,�k��,6.7,��
2021/04/10,23:20,0.632,0.941,0.591,1.156,0.827,0.372,0.655,0.614,�k��,7.3,��
2021/04/10,23:30,0.631,0.940,0.590,1.157,0.828,0.370,0.654,0.612,�k��,6.5,��
2021/04/10,23:40,0.631,0.940,0.590,1.156,0.826,0.371,0.654,0.614,�k��,6.3,��
2021/04/10,23:50,0.631,0.940,0.589,1.156,0.825,0.372,0.652,0.614,�k��,6.6,��
